www.pogodaiklimat.ru

Погода и климат >> Архив погоды >> Буркина-Фасо >> Dori


ПОГОДА в Dori

  • Прогноз погоды в Dori
  • Монитор погоды в Dori
  • Климат города

АРХИВ ПОГОДЫ в Dori

Время (UTC), дата Ветер
(напр.,м/с)
 
Видим.   Явления Облачность Т
(С)
Тd
(С)
f
(%)
Тe
(С)
Тes
(С)
Комфортность P
(гПа)
Po
(гПа)
Тmin
(С)
Tmax
(С)
R
(мм)
R24
(мм)
S
(см)
06 23.04 ЮЗ 1 10 км 9/0
[Ci sp]
+30.5 +17.6 46 +35 +35 очень
душно
1007.4 977.3 +30.5
09 23.04 ЮЗ 3 10 км 9/0
[Ac trans Ci sp]
+34.5 +16.2 34 +37 +42 очень
душно
1009.3 979.1
12 23.04 Ю 3 10 км 9/0
[Ac trans Ci sp]
+39.5 +17.0 27 +42 +54 опасность
перегрева
1007.7 977.6
15 23.04 Ю 2 10 км 9/3 800 м
[Cu Sc Ac trans Ci sp]
+39.7 +14.6 23 +41 +45 опасность
перегрева
1005.2 975.2
18 23.04 штиль 0 10 км 9/0
[Ci sp]
+28.7 +21.8 66 +37 +37 очень
душно
1005.1 974.5 +30.5
21 23.04 штиль 0 10 км 9/0
[Ci sp]
+35.8 +16.2 31 +38 +38 очень
душно
1006.6 976.5
00 24.04 штиль 0 10 км 9/0
[Ci sp]
+33.6 +13.6 30 +35 +35 душно 1007.1 977.1
03 24.04 штиль 0 10 км 9/0
[Ci sp]
+31.4 +14.3 35 +33 +33 жарко 1006.3 976.2
06 24.04 штиль 0 10 км 9/0
[Ci sp]
+30.2 +15.0 40 +33 +33 душно 1008.0 977.8 +29.9
09 24.04 Ю 3 10 км 9/0
[Ac trans Ci sp]
+35.8 +17.0 33 +39 +46 очень
душно
1009.2 979.1
12 24.04 ЮЗ 4 10 км 9/1 800 м
[Cu Sc Ci sp]
+40.0 +16.2 25 +42 +53 опасность
перегрева
1008.4 978.4
15 24.04 ЮВ 1 10 км 9/4 800 м
[Cu Sc Ci sp]
+42.1 +16.2 22 +44 +50 опасность
перегрева
1005.3 975.4
18 24.04 штиль 0 10 км 9/1 800 м
[Cu Sc Ci sp]
+40.5 +15.0 22 +41 +41 опасность
перегрева
1004.9 974.9 +43.0
21 24.04 штиль 0 10 км 9/0
[Ci sp]
+35.6 +18.2 36 +40 +40 очень
душно
1006.1 976.1
00 25.04 штиль 0 10 км 9/0
[Ci sp]
+34.3 +15.1 32 +36 +36 душно 1006.1 976.1
03 25.04 штиль 0 10 км 9/0
[Ci sp]
+32.3 +16.2 38 +35 +35 очень
душно
1005.1 975.2
06 25.04 штиль 0 10 км 9/0
[Ac trans Ci sp]
+30.2 +17.4 46 +34 +34 очень
душно
1006.5 976.5 +30.2
09 25.04 З 3 10 км 9/0
[Ci sp]
+37.5 +15.9 28 +39 +47 очень
душно
1008.1 978.1
12 25.04 Ю 2 10 км 9/0
[Ci sp]
+42.4 +9.7 14 +41 +59 опасность
перегрева
1005.9 976.1
15 25.04 Ю 2 10 км 9/0
[Ci sp]
+43.6 +9.8 14 +42 +52 опасность
перегрева
1002.9 973.1
18 25.04 штиль 0 10 км 9/0
[Ac trans Ci sp]
+42.0 +11.8 17 +41 +41 опасность
перегрева
1002.8 972.9 +44.4
21 25.04 Ю 2 10 км 9/0
[Ci sp]
+35.8 +16.2 31 +38 +38 очень
душно
1004.6 974.7
00 26.04 штиль 0 10 км 9/0
[Ci sp]
+33.0 +16.0 36 +36 +36 очень
душно
1005.9 976.1
03 26.04 Ю 1 10 км 9/0
[Ci sp]
+32.6 +14.3 33 +34 +34 очень
жарко
1004.8 975.1
06 26.04 ЮЗ 1 10 км 9/0
[Ci sp]
+30.5 +17.6 46 +35 +35 очень
душно
1007.3 977.3 +30.5
09 26.04 Ю 3 10 км 9/0
[Ci sp]
+34.5 +18.8 40 +39 +47 очень
душно
1009.4 979.2
12 26.04 З 1 10 км 9/0
[Ci sp]
+40.3 +14.7 22 +41 +62 опасность
перегрева
1007.8 977.8
15 26.04 СЗ 1 10 км 9/1 900 м
[Cu hum Ci sp]
+42.8 +14.5 19 +43 +53 опасность
перегрева
1004.9 975.1
18 26.04 штиль 0 10 км 9/1 800 м
[Cu Sc Ci sp]
+40.9 +12.5 19 +41 +41 опасность
перегрева
1004.7 974.7 +43.5
21 26.04 штиль 0 10 км 9/0
[Ci sp]
+36.6 +14.8 27 +38 +38 очень
душно
1006.0 975.9
00 27.04 штиль 0 10 км 9/0
[Ci sp]
+34.8 +14.9 30 +36 +36 душно 1006.3 976.4
03 27.04 Ю 2 10 км 9/0
[Ci sp]
+33.8 +17.3 37 +37 +37 очень
душно
1005.7 975.9
06 27.04 Ю 3 10 км 9/9 800 м
[Sc Ci sp]
+32.3 +20.0 48 +38 +38 очень
душно
1007.5 977.4 +32.3
09 27.04 Ю 4 10 км 9/0
[Ci sp]
+35.2 +19.9 41 +41 +47 опасность
перегрева
1010.1 979.9
12 27.04 Ю 2 10 км 9/0
[Ci sp]
+40.4 +16.4 25 +42 +60 опасность
перегрева
1007.9 977.9
15 27.04 Ю 2 10 км 9/0
[Ac trans Ci sp]
+42.5 +14.8 20 +43 +52 опасность
перегрева
1005.4 975.6
18 27.04 штиль 0 10 км 9/0
[Ci sp]
+41.0 +15.1 22 +42 +42 опасность
перегрева
1005.1 975.2 +43.0
21 27.04 штиль 0 10 км 9/0
[Ci sp]
+36.8 +13.2 24 +37 +37 очень
жарко
1006.6 976.5
00 28.04 Ю 2 10 км 9/0
[Ci sp]
+34.0 +19.3 42 +39 +39 очень
душно
1006.6 976.6
03 28.04 ЮЗ 2 10 км 9/0
[Ci sp]
+32.1 +17.9 43 +36 +36 очень
душно
1006.9 976.9
06 28.04 Ю 1 10 км 9/0
[Ci sp]
+30.3 +19.3 52 +36 +36 очень
душно
1008.2 978.1 +30.3
09 28.04 ЮЗ 3 10 км 9/0
[Ci sp]
+35.0 +18.5 38 +39 +47 очень
душно
1009.1 979.0
12 28.04 Ю 3 10 км 9/0
[Ci sp]
+39.2 +15.9 26 +41 +56 опасность
перегрева
1008.6 978.6
15 28.04 штиль 0 10 км 9/0
[Ci sp]
+41.7 +14.4 20 +42 +55 опасность
перегрева
1005.7 975.8
18 28.04 штиль 0 10 км 9/0
[Ci sp]
+40.7 +15.5 23 +42 +42 опасность
перегрева
1004.9 974.9 +43.4
21 28.04 ЮВ 1 10 км 9/0
[Ci sp]
+36.4 +15.4 29 +38 +38 очень
душно
1006.4 976.3
00 29.04 Ю 1 10 км 9/0
[Ac trans Ci sp]
+34.8 +16.0 33 +37 +37 очень
душно
1006.7 976.8
03 29.04 Ю 1 10 км 9/0
[Ac trans Ci sp]
+33.0 +19.8 46 +39 +39 очень
душно
1006.2 976.3
06 29.04 Ю 2 10 км 9/0
[Ac trans Ci sp]
+31.6 +20.4 52 +39 +39 очень
душно
1007.4 977.3 +31.6
09 29.04 Ю 3 10 км 9/0
[Ac trans Ci sp]
+35.2 +21.2 44 +42 +50 опасность
перегрева
1009.0 978.8
12 29.04 ЮЗ 1 10 км 9/0
[Ac trans Ci sp]
+40.8 +18.7 28 +45 +65 опасность
перегрева
1007.0 977.1
15 29.04 штиль 0 10 км 9/1 800 м
[Cu Sc Ci sp]
+43.0 +15.6 20 +44 +56 опасность
перегрева
1004.4 974.6
18 29.04 штиль 0 10 км 9/0
[Ac trans Ci sp]
+41.0 +15.6 23 +42 +43 опасность
перегрева
1004.3 974.3 +43.7
21 29.04 штиль 0 10 км 9/0
[Ci sp]
+37.5 +17.0 30 +40 +40 очень
душно
1006.4 976.4

 

Местоположение метеостанции Dori (Буркина-Фасо): широта 14.03 долгота -0.03 высота над уровнем моря 277 м.

В архиве по умолчанию представлена погода в Dori за последнюю неделю. Архивные данные за месяц целиком и за предыдущие месяцы, начиная с января 2011 года, Вы можете получить, выбрав интересующий диапазон дат из раскрывающегося списка и нажав кнопку "Ввод!".

Внимание! Время в таблицах - всемирное. Для получения местного времени необходимо прибавить поправку, которая в Dori равна 0 ч.

Смотрите также архив погоды в соседних городах и на ближайших метеорологических станциях:

Погода в Tillabery (Нигер) (161 км)
Погода в Fada N`Gourma (Буркина-Фасо) (227 км)
Погода в Niamey-Aero (Нигер) (245 км)
Погода в Ouagadougou (Буркина-Фасо) (247 км)
Погода в Ouahigouya (Буркина-Фасо) (263 км)
Погода в Po (Буркина-Фасо) (343 км)
Погода в Dapaon (Того) (354 км)
Погода в Navrongo (Гана) (367 км)
Погода в Dosso (Нигер) (367 км)
Погода в Boromo (Буркина-Фасо) (404 км)

Пояснения к столбцам:

Ветер - указаны скорость ветра в м/с - средняя за 10 мин, порывы в срок и между сроками (в фигурных скобках) и направление, откуда дует ветер: С - северный, СВ - северо-восточный, В - восточный, ЮВ - юго-восточный, Ю - южный, ЮЗ - юго-западный, З - западный, СЗ - северо-западный.
Видимость - горизонтальная дальность видимости в метрах или километрах. При видимости от 1 до 10 км при отсутствии осадков обычно наблюдается дымка, при ухудшении видимости до 1 км и менее - туман. В сухую погоду видимость может ухудшаться дымом, пылью или мглою.
Явления - указаны атмосферные явления, наблюдавшиеся в срок или в последний час перед сроком; фигурными скобками обозначены явления, наблюдавшиеся между сроками (за 1-3 часа до срока); квадратными скобками обозначены град или гололедные отложения с указанием их диаметра в мм.
Облачность - указаны через наклонную черту общая и нижняя облачность в баллах и высота нижней границы облаков в метрах; квадратными скобками обозначены формы облаков: Ci - перистые, Cs - перисто-слоистые, Cc - перисто-кучевые, Ac - высококучевые, As - высокослоистые, Sc - слоисто-кучевые, Ns - слоисто-дождевые, Cu - кучевые, Cb - кучево-дождевые. Подробнее классификацию облаков см. в Атласе облаков (PDF).
T - Температура воздуха - температура, измеренная на высоте 2 м над землей.
Td - Температура точки росы - температура, при понижении до которой содержащийся в воздухе водяной пар достигнет насыщения.
f - Относительная влажность воздуха - влажноcть воздуха, измеренная на высоте 2 м над землей.
Te - Эффективная температура - температура, которую ощущает одетый по сезону человек в тени. Характеристика душности погоды. При расчете учитывается влияние влажности воздуха и скорости ветра на теплоощущения человека.
Tes - Эффективная температура на солнце - температура, которую ощущает человек, с поправкой на солнечный нагрев. Характеристика знойности погоды. Зависит от высоты солнца над горизонтом, облачности и скорости ветра. Ночью, в пасмурную погоду, а также при ветре 12 м/с и более поправка равна нулю.
P - Атмосферное давление - приведенное к уровню моря атмосферное давление.
Po - Атмосферное давление - измеренное на уровне метеостанции атмосферное давление.
Tmin - Минимальная температура - минимум температуры воздуха на высоте 2 м над землей.
Tmax - Максимальная температура - максимум температуры воздуха на высоте 2 м над землей.
R - Количество осадков - Количество выпавших осадков за период времени, мм. При наведении курсора мыши на число - период времени, за который выпало указанное количество осадков.
R24 - Количество осадков - Количество выпавших осадков за 24 часа, мм.
S - Снежный покров - Высота снежного покрова, см. При наведении курсора мыши на число - состояние снежного покрова и степень покрытия местности в баллах.